OpenBCM V1.13 (Linux)

Packet Radio Mailbox

DB0FHN

[JN59NK Nuernberg]

 Login: GUEST





  
LU9DCE > KEP      12.06.19 20:32l 244 Lines 12055 Bytes #999 (0) @ WW
BID : 26621_LU9DCE
Read: DF7EAV DJ6UX GUEST
Subj: TLE 12 06
Path: DB0FHN<OE2XZR<OE5XBR<OE1XAB<HG8LXL<XE1FH<ZL2BAU<GB7YEW<LU9DCE
Sent: 190612/1805Z 26621@LU9DCE.TOR.BA.ARG.SOAM LinBPQ6.0.18

            __    _  _  ___  ____   ___  ____    ____  ____  ____
           (  )  / )( \/ _ \(    \ / __)(  __)  (  _ \(  _ \/ ___)
           / (_/\) \/ (\__  )) D (( (__  ) _)    ) _ ( ) _ (\___ \
           \____/\____/(___/(____/ \___)(____)  (____/(____/(____/
               ESTACION DE PACKET RADIO - BUENOS AIRES (GF05OM)
                   BOLETINES INFORMATIVOS PROGRAMADOS (BIP)
                  SLACKWARE LINUX - HELLOCODELINUX@GMAIL.COM

+----------------------------------------------------------------------------+
OSCAR 7
1  7530U 74089B   19162.84342374 -.00000034 +00000-0 +71335-4 0  9998
2  7530 101.7431 130.5746 0012274 002.6144 062.7597 12.53638453039427
OSCAR 11 (UoSAT 2)
1 14781U 84021B   19162.61599574  .00000033  00000-0  10211-4 0  9996
2 14781  97.6110 187.6694 0008178 353.9130   6.1984 14.83089424897719
OSCAR 19 (LUSAT)
1 20442U 90005G   19162.82607583 -.00000009 +00000-0 +12961-4 0  9997
2 20442 098.6482 104.8376 0011970 164.2344 195.9215 14.32926620535338
EYESAT A
1 22825U 93061C   19163.41282805 -.00000001  00000-0  17735-4 0  9997
2 22825  98.9027 151.9067 0008845  24.4338 335.7261 14.30060266341052
ITAMSAT
1 22826U 93061D   19162.92630468 +.00000004 +00000-0 +19347-4 0  9998
2 22826 098.8966 151.4013 0009184 014.7325 345.4122 14.30393769340932
RADIO ROSTO
1 23439U 94085A   19162.86431764 -.00000029 +00000-0 +39466-3 0  9998
2 23439 064.8149 127.1648 0146232 114.5517 247.0727 11.27568136007125
JAS 2
1 24278U 96046B   19163.41205500 -.00000004  00000-0  34488-4 0  9991
2 24278  98.5361 317.6749 0349283 256.2661  99.9376 13.53091858126950
TECHSAT 1B
1 25397U 98043D   19162.80225857 -.00000027 +00000-0 +72799-5 0  9995
2 25397 098.6884 103.0299 0002350 071.6667 288.4767 14.23666416086676
ISS (ZARYA)
1 25544U 98067A   19163.40150463  .00001043  00000-0  25338-4 0  9996
2 25544  51.6443  25.0509 0007958  41.4433 317.5453 15.51193586174503
PCSAT
1 26931U 01043C   19162.92874192 -.00000043 +00000-0 +15492-4 0  9993
2 26931 067.0520 021.1329 0006589 279.4753 080.5603 14.30544239923939
SAUDISAT 1C
1 27607U 02058C   19162.90475707 -.00000055 +00000-0 +13184-4 0  9997
2 27607 064.5559 070.3468 0081572 257.8311 101.3646 14.75551527885909
CUTE-1
1 27844U 03031E   19162.89897616 +.00000040 +00000-0 +37494-4 0  9990
2 27844 098.6835 171.2143 0010871 055.3745 304.8457 14.22180367827283
CUBESAT XI 4
1 27848U 03031J   19162.88917978 +.00000039 +00000-0 +37351-4 0  9997
2 27848 098.6914 171.7033 0010878 065.4035 294.8275 14.21775188827140
MOZHAYETS 4
1 27939U 03042A   19163.43104252  .00000061  00000-0  19573-4 0  9996
2 27939  98.0393 299.3696 0014278  87.9235 272.3611 14.66783944839626
CUBESAT XI 5
1 28895U 05043F   19163.35576989  .00000104  00000-0  28876-4 0  9996
2 28895  97.9583 306.3043 0017057  16.6754 343.5006 14.63667086726556
CUTE-1.7+APD II
1 32785U 08021C   19163.43290954  .00000156  00000-0  22452-4 0  9993
2 32785  97.5491 163.4427 0011527 285.9476  74.0471 14.88308066602753
DELFI C3
1 32789U 08021G   19162.71231390  .00000677  00000-0  49242-4 0  9990
2 32789  97.4645 212.5887 0013350 143.1738 217.0409 15.06936788605915
SEEDS
1 32791U 08021J   19162.72360042 +.00000172 +00000-0 +22873-4 0  9992
2 32791 097.5275 168.7334 0011715 260.1400 099.8496 14.90816977602992
YUBELEINY
1 32953U 08025A   19163.52781627  .00000021  00000-0  75656-4 0  9991
2 32953  82.5000 148.5990 0019880 139.1222 221.1356 12.43089949501545
PRISM (HITOMI)
1 33493U 09002B   19162.77605720  .00000366  00000-0  37618-4 0  9990
2 33493  98.1218  83.4684 0014541 201.8855 158.1746 14.96643672564117
KKS-1 (KISEKI)
1 33499U 09002H   19162.89305455 +.00000092 +00000-0 +21649-4 0  9994
2 33499 098.3508 001.3842 0008217 222.5094 137.5479 14.75440274557790
SWISSCUBE
1 35932U 09051B   19163.00092693  .00000125  00000-0  39187-4 0  9996
2 35932  98.5873 328.7783 0007696 176.7723 183.3525 14.56283236515809
BEESAT
1 35933U 09051C   19163.41653031  .00000102  00000-0  33932-4 0  9998
2 35933  98.5901 330.9614 0005642 185.7810 174.3322 14.56372659515977
ITUPSAT 1
1 35935U 09051E   19163.40184208  .00000062  00000-0  25328-4 0  9999
2 35935  98.6011 331.1849 0007974 186.5723 173.5370 14.55532801515720
XIWANG-1 (HOPE-1)
1 36122U 09072B   19163.42735569 -.00000044  00000-0 -59403-5 0  9999
2 36122 100.0726 166.1015 0007634   6.6340 353.4884 13.16349726456058
TISAT 1
1 36799U 10035E   19163.37437973  .00000397  00000-0  46134-4 0  9997
2 36799  98.1550 315.3175 0013662 105.5287 254.7440 14.91099372483821
JUGNU
1 37839U 11058B   19161.06731455  .00000303  00000-0  19646-4 0  9990
2 37839  19.9627  27.0744 0018910 231.8973 293.9955 14.12652011396038
SRMSAT
1 37841U 11058D   19163.07696667  .00000282  00000-0  99804-5 0  9992
2 37841  19.9727  71.5238 0012056 124.0741   2.4704 14.10633220395757
M-CUBED/EXP-1 PRIME
1 37855U 11061F   19163.41882797  .00000824  00000-0  49050-4 0  9999
2 37855 101.7157  55.7984 0173771  95.3806 266.7257 15.05397202415837
HORYU 2
1 38340U 12025D   19162.72731019  .00000143  00000-0  28845-4 0  9996
2 38340  98.3293 201.1092 0012429 141.5087 218.7010 14.75716864380136
STRAND 1
1 39090U 13009E   19162.81389174 +.00000033 +00000-0 +26716-4 0  9996
2 39090 098.4892 008.8883 0008287 315.4765 044.5754 14.35086439329381
SOMP
1 39134U 13015E   19162.91273815 +.00000887 +00000-0 +49925-4 0  9991
2 39134 064.8641 042.4010 0029755 304.2197 055.6112 15.20140636339188
BEESAT 3
1 39135U 13015F   19162.88879366  .00000838  00000-0  51423-4 0  9993
2 39135  64.8692  60.6798 0019969 323.5129  36.4635 15.17450634339214
BEESAT 2
1 39136U 13015G   19162.92322642 +.00000708 +00000-0 +45660-4 0  9991
2 39136 064.8699 064.3707 0018977 302.3562 057.5726 15.16879888338755
CUBEBUG 1
1 39153U 13018D   19163.27520565  .00000123  00000-0  23062-4 0  9999
2 39153  97.9778 261.4362 0016161 215.2281 144.7864 14.80564498330863
ZACUBE
1 39417U 13066B   19162.81414523  .00000183  00000-0  29282-4 0  9996
2 39417  97.5624 176.7025 0060338  57.4540 303.2482 14.81111664300022
TRITON 1
1 39427U 13066M   19162.91116495 +.00000172 +00000-0 +35434-4 0  9999
2 39427 097.6753 140.7088 0113562 186.4382 173.5372 14.67837073297150
GOMX 1
1 39430U 13066Q   19163.38260468  .00000171  00000-0  40497-4 0  9999
2 39430  97.7465 120.3503 0149776 274.3276  84.0835 14.59250106295689
HUMSAT D
1 39433U 13066T   19162.70684655  .00000160  00000-0  20957-4 0  9992
2 39433  97.5540 210.4979 0029749 326.6160  33.3183 14.92184710302037
CUBEBUG 2
1 39440U 13066AA  19162.90351057 +.00000165 +00000-0 +29682-4 0  9998
2 39440 097.6016 161.7418 0081815 106.7008 254.3202 14.75849972297770
FUNCUBE 1
1 39444U 13066AE  19162.81850377  .00000227  00000-0  34149-4 0  9994
2 39444  97.5606 178.6454 0059372  51.5150 309.1368 14.81929412298917
UWE-3
1 39446U 13066AG  19162.91926718 +.00000172 +00000-0 +29265-4 0  9992
2 39446 097.5809 168.7704 0071666 082.3616 278.5728 14.78384424297676
SPROUT
1 39770U 14029E   19163.50944588  .00000360  00000-0  45998-4 0  9993
2 39770  97.8835 266.8409 0010371 102.9559 257.2833 14.87329408273914
UNISAT 6
1 40012U 14033C   19162.61573257  .00000128  00000-0  26366-4 0  9991
2 40012  97.7587  29.5325 0059595 119.9217 240.7929 14.73974196267640
DUCHIFAT 1
1 40021U 14033M   19163.03272287  .00000201  00000-0  26327-4 0  9996
2 40021  97.9242  87.6043 0014467  73.6501 286.6306 14.90621844270553
QB50P1
1 40025U 14033R   19162.77831455  .00000219  00000-0  29274-4 0  9991
2 40025  97.9065  82.4734 0013990  82.8246 277.4560 14.88937973270299
CHUBUSAT 1
1 40300U 14070C   19163.13844479  .00000592  00000-0  28721-4 0  9999
2 40300  97.3264 237.4863 0021584  78.8962 297.2648 15.22074950255020
NUDT-PHONESAT
1 40900U 15049B   19163.47817806  .00001750  00000-0  77912-4 0  9996
2 40900  97.4370 172.8750 0012044 199.5711 317.2477 15.22752071206718
ZDPS 2A
1 40901U 15049C   19163.41683880  .00000821  00000-0  43997-4 0  9998
2 40901  97.4595 169.3311 0012095 219.9111 250.6496 15.17710346206285
ZDPS 2B
1 40902U 15049D   19163.57398591  .00000754  00000-0  40920-4 0  9996
2 40902  97.4537 167.0077 0012256 216.1670 258.5180 15.17518770206288
XW-2A
1 40903U 15049E   19163.41928043  .00001631  00000-0  40445-4 0  9998
2 40903  97.3380 206.1473 0013925 160.8542 295.3226 15.41815207209281
KAITUO 1A
1 40904U 15049F   19163.53002855  .00000551  00000-0  32683-4 0  9991
2 40904  97.4662 165.6452 0013162 225.3283 248.4083 15.15356538206065
OBJECT G
1 40905U 15049G   19163.41177443  .00000519  00000-0  31873-4 0  9999
2 40905  97.4698 163.0924 0014365 220.5571 274.9818 15.14284420205927
XW-2C
1 40906U 15049H   19163.39956122  .00000729  00000-0  41749-4 0  9992
2 40906  97.4669 165.5828 0013405 217.2370 252.6748 15.15663458206042
XW-2D
1 40907U 15049J   19163.57743344  .00000330  00000-0  20687-4 0  9999
2 40907  97.4647 165.4355 0013105 212.7188 265.0479 15.15847010206088
LILACSAT 2
1 40908U 15049K   19163.45815257  .00000196  00000-0  14475-4 0  9998
2 40908  97.4782 164.1877 0014698 219.7929 295.6521 15.13793479205861
XW-2F
1 40910U 15049M   19163.48549559  .00000976  00000-0  52320-4 0  9990
2 40910  97.4625 167.3076 0013705 206.0865 306.0013 15.17274689206070
XW-2B
1 40911U 15049N   19163.41575194  .00000687  00000-0  39422-4 0  9995
2 40911  97.4676 165.9211 0012745 214.2188 285.2516 15.15779756205959
KAITUO 1B
1 40912U 15049P   19163.38607869  .00000854  00000-0  43277-4 0  9996
2 40912  97.4494 170.8228 0014374 188.3765 279.1771 15.19580817206355
TIANWANG 1C (TW-1C)
1 40926U 15051B   19163.54269705  .00010738  00000-0  15779-3 0  9992
2 40926  97.1363 209.7247 0009201  45.6489  60.4006 15.55609855209209
